DateTimeUTC,F1_A11,F1_S11,BsB_S11,BsG_S11,BsR_S11,BbsB_S11,BbsG_S11,BbsR_S11,BaB_A11,BaG_A11,BaR_A11,Tu_S11,T_S11,Uu_S11,U_S11,P_S11,T1_A11
2021-02-03T10:00:00Z,00000200,21000000,,,,,,,0000.03,-000.04,-000.20,15.7,23.1,,00.0,0631.4,30.9
2021-02-03T10:01:00Z,00000200,21000000,,,,,,,-000.28,-000.14,-000.12,15.6,23.1,,00.0,0631.4,30.8
2021-02-03T10:02:00Z,00000200,21000000,,,,,,,0000.42,0000.10,0000.35,15.6,23.1,,00.0,0631.4,30.8
2021-02-03T10:03:00Z,00000200,61000000,,,,,,,0000.17,0000.50,0000.40,15.6,23.1,,00.0,0631.4,30.9
2021-02-03T10:04:00Z,00000200,41000000,0000.24,-000.02,0000.03,-000.33,-000.03,-000.17,0000.27,0000.21,-000.01,15.9,22.9,,00.0,0632.2,30.9
2021-02-03T10:05:00Z,00000200,01000000,0000.58,0000.19,-000.03,-000.09,0000.23,-000.19,-000.21,-000.11,0000.26,16.0,22.8,,00.0,0632.3,30.9
2021-02-03T10:06:00Z,00000200,01000000,0000.16,-000.14,0000.18,-000.37,0000.08,-000.10,0000.16,0000.19,-000.23,16.1,22.9,,00.0,0632.3,30.9
2021-02-03T10:07:00Z,00000200,01000000,0000.32,0000.09,0000.01,0000.07,0000.14,-000.00,-000.04,0000.17,0000.16,16.1,22.9,,00.0,0632.4,30.9
2021-02-03T10:08:00Z,00000200,01000000,-000.19,-000.06,0000.28,-000.19,0000.02,0000.19,0000.04,-000.44,0000.33,16.2,22.9,,00.0,0632.4,30.9
2021-02-03T10:09:00Z,00000200,01000000,0000.84,-000.21,-000.05,0000.40,0000.02,0000.12,-000.08,-000.57,-000.30,16.3,22.9,,00.0,0632.5,30.9
2021-02-03T10:10:00Z,00000200,01000000,0000.73,0000.02,-000.24,0000.22,0000.12,-000.21,-000.17,0000.58,-000.30,16.3,22.9,,00.0,0632.5,30.9
2021-02-03T10:11:00Z,00000200,01000000,-000.02,0000.22,0000.31,-000.08,0000.16,0000.06,-000.35,0000.16,-000.07,16.3,22.9,,00.0,0632.5,30.9
2021-02-03T10:12:00Z,00000200,01000000,0000.13,0000.01,-000.09,0000.43,0000.12,-000.28,-000.11,-000.02,0000.14,16.2,22.9,,00.0,0632.5,30.9
2021-02-03T10:13:00Z,00000200,01000000,0000.39,-000.01,-000.10,0000.14,0000.02,-000.19,0000.01,-000.36,-000.02,16.2,22.9,,00.0,0632.5,30.9
2021-02-03T10:14:00Z,00000200,01000000,0000.30,0000.27,-000.14,-000.31,0000.10,-000.15,-000.20,-000.08,-000.29,16.1,22.8,,00.0,0632.5,30.9
2021-02-03T10:15:00Z,00000200,01000000,0000.26,0000.12,0000.32,-000.05,-000.10,-000.19,-000.09,-000.45,0000.04,16.0,22.8,,00.0,0632.5,30.9
2021-02-03T10:16:00Z,00000200,01000000,0000.45,-000.09,0000.03,-000.11,0000.18,-000.05,-000.27,-000.12,-000.37,16.0,22.8,,00.0,0632.6,30.8
2021-02-03T10:17:00Z,00000200,01000000,0000.83,0000.17,0000.19,-000.00,-000.12,0000.02,0000.13,-000.17,0000.17,16.0,22.8,,00.0,0632.6,30.8
2021-02-03T10:18:00Z,00000200,01000000,0000.59,-000.08,0000.10,0000.07,-000.02,0000.13,-000.05,0000.35,-000.20,16.0,22.8,,00.0,0632.6,30.8
2021-02-03T10:19:00Z,00000200,01000000,-000.05,-000.22,0000.22,-000.06,0000.09,-000.00,0000.22,-000.22,0000.44,16.1,22.8,,00.0,0632.6,30.9
2021-02-03T10:20:00Z,00000200,01000000,0000.43,-000.10,0000.28,-000.54,0000.31,-000.19,-000.11,-000.05,-000.18,16.1,22.8,,00.0,0632.6,30.9
2021-02-03T10:21:00Z,00000200,01000000,0000.16,-000.22,0000.09,0000.01,0000.17,0000.11,-000.07,0000.36,0000.08,16.2,22.9,,00.0,0632.6,30.9
2021-02-03T10:22:00Z,00000200,01000000,0000.38,0000.06,0000.12,-000.51,0000.12,0000.08,0000.34,-000.25,-000.13,16.3,22.9,,00.0,0632.6,30.9
2021-02-03T10:23:00Z,00000200,01000000,0000.41,0000.05,0000.32,-000.15,-000.00,0000.18,-000.67,0000.23,0000.01,16.3,22.9,,00.0,0632.6,30.9
2021-02-03T10:24:00Z,00000200,01000000,0000.07,-000.12,0000.38,0000.30,-000.05,-000.15,0000.49,-000.17,-000.21,16.3,22.9,,00.0,0632.7,30.9
2021-02-03T10:25:00Z,00000200,01000000,0000.11,-000.08,0000.17,-000.08,0000.03,0000.19,-000.52,-000.19,-000.11,16.3,22.9,,00.0,0632.7,30.9
2021-02-03T10:26:00Z,00000200,01000000,0000.15,0000.09,0000.26,-000.74,0000.07,-000.05,0000.04,-000.19,0000.12,16.3,22.9,,00.0,0632.8,30.9
2021-02-03T10:27:00Z,00000200,01000000,0000.55,-000.07,0000.17,-000.09,0000.17,0000.00,-000.12,-000.22,-000.27,16.2,22.9,,00.0,0632.8,30.9
2021-02-03T10:28:00Z,00000200,01000000,0000.56,0000.19,-000.07,-000.45,-000.10,-000.04,-000.30,0000.16,0000.17,16.1,22.9,,00.0,0632.8,30.9
2021-02-03T10:29:00Z,00000200,01000000,0000.18,-000.02,0000.32,-000.27,0000.16,-000.14,0000.33,-000.40,-000.19,16.0,22.8,,00.0,0632.9,30.9
2021-02-03T10:30:00Z,00000200,01000000,-000.26,0000.12,-000.03,0000.01,0000.03,0000.30,-000.24,0000.05,-000.06,16.0,22.8,,00.0,0632.9,30.9
2021-02-03T10:31:00Z,00000200,01000000,0000.16,-000.02,0000.21,-000.59,-000.17,-000.26,0000.36,-000.07,-000.16,15.9,22.8,,00.0,0632.9,30.8
2021-02-03T10:32:00Z,00000200,01000000,0000.09,0000.22,-000.04,0000.07,-000.01,0000.07,0000.09,0000.07,0000.27,15.9,22.7,,00.0,0632.9,30.8
2021-02-03T10:33:00Z,00000200,01000000,0000.03,0000.05,0000.20,-000.09,-000.10,-000.14,-000.14,0000.50,0000.78,16.0,22.8,,00.0,0632.9,30.9
2021-02-03T10:34:00Z,00000200,01000000,0000.26,0000.02,0000.20,-000.27,0000.08,-000.05,0000.13,0000.24,-000.35,16.0,22.8,,00.0,0632.8,30.9
2021-02-03T10:35:00Z,00000200,01000000,-000.39,-000.06,0000.22,-000.27,-000.09,-000.20,0000.20,-000.05,0000.05,16.1,22.8,,00.0,0632.9,30.9
2021-02-03T10:36:00Z,00000200,01000000,0000.63,0000.12,0000.02,0000.07,0000.13,-000.18,-000.09,0000.07,0000.10,16.2,22.8,,00.0,0632.9,30.9
2021-02-03T10:37:00Z,00000200,01000000,0000.27,-000.07,0000.04,0000.16,0000.05,-000.00,-000.08,-000.22,-000.09,16.2,22.9,,00.0,0632.9,30.9
2021-02-03T10:38:00Z,00000200,01000000,0000.34,0000.08,-000.04,0000.03,-000.05,-000.08,0000.17,0000.11,0000.13,16.3,22.9,,00.0,0632.9,30.9
2021-02-03T10:39:00Z,00000200,01000000,0000.71,0000.03,0000.07,0000.18,0000.08,-000.03,-000.07,-000.09,0000.04,16.3,22.9,,00.0,0632.9,30.9
2021-02-03T10:40:00Z,00000200,01000000,0000.56,0000.19,0000.08,-000.51,0000.08,-000.06,-000.02,0000.43,-000.09,16.3,22.9,,00.0,0633.0,30.9
2021-02-03T10:41:00Z,00000200,01000000,0000.56,-000.05,0000.22,0000.21,0000.17,-000.13,0000.12,-000.06,-000.20,16.2,22.9,,00.0,0632.9,30.9
2021-02-03T10:42:00Z,00000200,01000000,0000.20,-000.12,0000.20,0000.17,-000.00,-000.02,0000.17,-000.15,0000.15,16.2,22.8,,00.0,0632.9,30.9
2021-02-03T10:43:00Z,00000200,01000000,0000.30,0000.00,0000.17,-000.40,0000.06,-000.03,-000.27,0000.14,0000.21,16.1,22.8,,00.0,0632.9,30.9
2021-02-03T10:44:00Z,00000200,01000000,-000.11,-000.09,0000.19,-000.14,-000.05,0000.04,0000.13,-000.23,-000.58,16.0,22.8,,00.0,0632.9,30.9
2021-02-03T10:45:00Z,00000200,01000000,0001.17,0000.10,0000.01,-000.08,-000.08,-000.48,0000.23,-000.08,0000.40,15.9,22.7,,00.0,0633.0,30.8
2021-02-03T10:46:00Z,00000200,01000000,0000.89,-000.02,0000.34,-000.06,0000.31,-000.01,-000.66,-000.34,-000.14,15.9,22.7,,00.0,0632.9,30.8
2021-02-03T10:47:00Z,00000200,01000000,0000.24,-000.10,0000.02,-000.33,0000.05,-000.01,0000.24,0000.07,-000.33,15.9,22.7,,00.0,0632.9,30.8
2021-02-03T10:48:00Z,00000200,01000000,0000.63,0000.07,-000.14,-000.14,0000.13,-000.06,0000.29,0000.28,0000.55,15.9,22.7,,00.0,0633.0,30.8
2021-02-03T10:49:00Z,00000200,01000000,0000.24,0000.05,0000.24,-000.33,-000.02,0000.06,-000.21,-000.12,-000.06,16.0,22.8,,00.0,0633.1,30.9
2021-02-03T10:50:00Z,00000200,01000000,-000.05,-000.10,0000.26,0000.23,0000.17,-000.02,-000.33,0000.15,0000.06,16.1,22.8,,00.0,0633.1,30.9
2021-02-03T10:51:00Z,00000200,01000000,-000.31,0000.08,0000.21,-000.15,0000.05,-000.19,-000.02,-000.10,-000.20,16.1,22.8,,00.0,0633.1,30.9
2021-02-03T10:52:00Z,00000200,01000000,0000.58,0000.17,0000.03,-000.54,0000.03,-000.14,0000.14,0000.12,-000.10,16.2,22.8,,00.0,0633.1,30.9
2021-02-03T10:53:00Z,00000200,01000000,0000.45,-000.13,-000.03,-000.22,0000.13,-000.12,-000.08,-000.12,0000.06,16.3,22.9,,00.0,0633.1,30.9
2021-02-03T10:54:00Z,00000200,01000000,0000.17,0000.17,0000.18,0000.22,0000.21,-000.05,-000.43,-000.33,-000.04,16.3,22.9,,00.0,0633.2,30.9
2021-02-03T10:55:00Z,00000200,01000000,0000.14,0000.08,0000.13,-000.00,-000.05,0000.12,0000.25,0000.23,-000.30,16.2,22.9,,00.0,0633.2,30.9
2021-02-03T10:56:00Z,00000200,01000000,-000.11,0000.11,0000.06,-000.24,0000.27,-000.16,0000.13,-000.24,0000.22,16.2,22.9,,00.0,0633.2,30.9
2021-02-03T10:57:00Z,00000200,41000000,,,,,,,0000.95,0000.99,0000.42,16.2,22.9,,00.0,0633.1,30.9
2021-02-03T10:58:00Z,00000200,61000000,,,,,,,-000.42,-000.43,-000.31,15.6,23.0,,00.0,0632.3,30.9
2021-02-03T10:59:00Z,00000200,21000000,,,,,,,-000.67,-000.27,-000.18,15.6,23.1,,00.0,0632.3,30.9
